Simultaneous Nadir Overpasses (SNOs) Predictions

Prediction of SNOs between LANDSAT-8 and NOAA-19 Satellite Orbit:

Table of predicted SNOs for the next 14.0 days since TLE Epoch: 11/10/2018
Index Date (LANDSAT-8) Time (LANDSAT-8) Lat,Lon (LANDSAT-8) SZA (LANDSAT-8 ) Date (NOAA-19) Time (NOAA-19) Lat,Lon (NOAA-19) SZA (NOAA-19 ) Distance(km) Time Diff (sec)
1 11/11/2018 16:36:39 -78.13, 127.01 83.71 11/11/2018 16:36:30 -78.15, 127.04 83.70 1.45 9
2 11/13/2018 22:10:22 78.16,-136.32 96.92 11/13/2018 22:10:01 78.15,-136.30 96.91 0.56 21
3 11/13/2018 22:59:50 -78.13, 31.18 83.12 11/13/2018 23:01:01 -78.14, 31.05 83.10 3.19 71
4 11/16/2018 03:44:06 -78.16, -39.74 82.52 11/16/2018 03:43:31 -78.17, -39.68 82.52 1.66 35
5 11/16/2018 04:33:32 78.15, 127.83 97.47 11/16/2018 04:34:31 78.13, 127.81 97.47 2.28 59
6 11/18/2018 09:17:49 78.17, 56.89 98.04 11/18/2018 09:17:03 78.17, 56.97 98.03 1.74 46
7 11/18/2018 10:07:17 -78.15,-135.59 81.99 11/18/2018 10:08:02 -78.16,-135.70 81.97 2.93 45
8 11/20/2018 14:51:34 -78.18, 153.47 81.46 11/20/2018 14:50:33 -78.20, 153.55 81.45 2.82 61
9 11/20/2018 15:41:00 78.16, -38.96 98.53 11/20/2018 15:41:34 78.15, -38.93 98.54 1.25 34
10 11/22/2018 20:25:17 78.18,-109.92 99.03 11/22/2018 20:24:06 78.20,-109.80 99.04 3.39 71




NCC Satellite Simultaneous Nadir Overpasses (SNOs) Prediction Service
